Faith, SD

2:26 AM MDT on August 22, 2017 (GMT -0600)
Faith

Weather History for KD07 - August, 2013

Change the Weather History Date:

Monday, August 19, 2013

  Actual Average Record
Temperature  
Mean Temperature 76 °F 72 °F  
Max Temperature 93 °F 86 °F 98 °F (2017)
Min Temperature 59 °F 58 °F 39 °F (2004)
Degree Days  
Heating Degree Days 0 1  
Month to date heating degree days 2 3  
Since 1 June heating degree days 88 105  
Since 1 July heating degree days 15 15  
Cooling Degree Days 11 7  
Month to date cooling degree days 76 159  
Year to date cooling degree days 434 504  
Since 1 June cooling degree days 421 492  
Growing Degree Days 26 (Base 50)    
Moisture  
Dew Point 59 °F    
Average Humidity 62    
Maximum Humidity 100    
Minimum Humidity 24    
Precipitation  
Precipitation 0.00 in 0.04 in 0.28 in (2016)
Month to date precipitation 1.89 1.07  
Year to date precipitation 12.36 13.26  
Sea Level Pressure  
Sea Level Pressure 29.88 in    
Wind  
Wind Speed 9 mph (SE)    
Max Wind Speed 17 mph    
Max Gust Speed 28 mph    
T = Trace of Precipitation, MM = Missing Value Source: NWS Daily Summary

Daily Weather History Graph

Daily Weather History Graph

Search for Another Location

Airport or City:

Trip Planner

Search our weather history database for the weather conditions in past years. The results will help you decide how hot, cold, wet, or windy it might be!

Date:

Astronomy

Aug. 19, 2013 Rise Set
Actual Time 5:54 AM MDT 7:47 PM MDT
Civil Twilight 5:23 AM MDT 8:18 PM MDT
Nautical Twilight 4:44 AM MDT 8:57 PM MDT
Astronomical Twilight 4:02 AM MDT 9:39 PM MDT
Moon 6:39 PM MDT (8/19) 4:14 AM MDT (8/19)
Length of Visible Light 14h 55m
Length of Day
13h 52m
Waxing Gibbous, 97% of the Moon is Illuminated
Aug 19
Waxing Gibbous
Aug 20
Full
Aug 28
Last Quarter
Sep 5
New
Sep 12
First Quarter

Hourly Weather History & Observations

Time (MDT) Temp. Heat Index Dew Point Humidity Pressure Visibility Wind Dir Wind Speed Gust Speed Precip Events Conditions
12:56 AM 66.9 °F - 64.9 °F 93% 29.91 in - North 8.1 mph - N/A   Unknown
1:56 AM 64.9 °F - 64.0 °F 97% 29.91 in - North 3.5 mph - N/A   Unknown
2:56 AM 62.1 °F - 62.1 °F 100% 29.90 in - NW 8.1 mph - N/A   Unknown
3:56 AM 60.1 °F - 60.1 °F 100% 29.89 in - WNW 5.8 mph - N/A   Unknown
4:56 AM 61.0 °F - 60.1 °F 97% 29.90 in - NW 8.1 mph - N/A   Unknown
5:56 AM 59.0 °F - 59.0 °F 100% 29.92 in - NNW 6.9 mph - N/A   Unknown
6:56 AM 62.1 °F - 61.0 °F 96% 29.92 in - North 4.6 mph - N/A   Unknown
7:56 AM 68.0 °F - 64.9 °F 90% 29.94 in - NNE 3.5 mph - N/A   Unknown
8:56 AM 75.0 °F - 66.0 °F 73% 29.92 in - ENE 6.9 mph - N/A   Unknown
9:56 AM 82.9 °F 84.4 °F 64.0 °F 53% 29.90 in - ENE 11.5 mph - N/A   Unknown
10:56 AM 88.0 °F 86.5 °F 55.9 °F 34% 29.89 in - East 12.7 mph - N/A   Unknown
11:56 AM 90.0 °F 87.9 °F 55.0 °F 30% 29.88 in - ESE 8.1 mph - N/A   Unknown
12:56 PM 93.0 °F - 52.0 °F 25% 29.87 in - SE 8.1 mph - N/A   Unknown
1:56 PM 91.9 °F - 50.0 °F 24% 29.87 in - South 4.6 mph - N/A   Unknown
2:56 PM 91.9 °F - 52.0 °F 26% 29.87 in - Variable 6.9 mph - N/A   Unknown
3:56 PM 91.9 °F 90.0 °F 55.0 °F 29% 29.86 in - South 8.1 mph - N/A   Unknown
4:56 PM 91.0 °F 88.9 °F 55.0 °F 29% 29.86 in - South 9.2 mph - N/A   Unknown
5:56 PM 88.0 °F 86.5 °F 55.9 °F 34% 29.85 in - SSE 11.5 mph - N/A   Unknown
6:56 PM 82.9 °F 82.8 °F 59.0 °F 44% 29.84 in - SSE 8.1 mph - N/A   Unknown
7:56 PM 75.0 °F - 60.1 °F 60% 29.84 in - SSE 11.5 mph - N/A   Unknown
8:56 PM 73.0 °F - 59.0 °F 61% 29.84 in - South 10.4 mph - N/A   Unknown
9:56 PM 71.1 °F - 57.9 °F 63% 29.83 in - SSE 12.7 mph - N/A   Unknown
10:56 PM 70.0 °F - 57.0 °F 63% 29.82 in - SSE 13.8 mph - N/A   Unknown
11:56 PM 69.1 °F - 57.0 °F 65% 29.82 in - South 15.0 mph - N/A   Unknown